Location: Zapote
(9.9191°N, 84.0597°W)
Time: 06:54:47
(UTC-06:00)

ISS - Pass Details

Date: 10 April 2020
Orbit: 417 x 419 km, 51.6° (Epoch: 03 June)

Event Time Altitude Azimuth Distance (km) Brightness Sun altitude
Rises 18:33:25 0° 338° (NNW) 2,344 0.5 -12.2°
Reaches altitude 10° 18:35:41 10° 350° (N) 1,482 -0.7 -12.7°
Maximum altitude 18:38:38 29° 52° (NE) 788 -2.7 -13.4°
Enters shadow 18:39:35 25° 84° (E) 887 -2.7 -13.7°
